Back to catalog

YZ-2 R/B

AliveMEO
NORAD 41840·ROCKET BODY·🇨🇳 China

Launched Nov 3, 2016 from Wenchang Space Launch Site

Loading…

Next Passes (next 24 hours)

TLE

FreshSource: Space-Track

Epoch: Sep 14, 2026, 05:21 UTC

1 41840U 16065C   26257.22322103 -.00000214  00000-0  00000-0 0  9990
2 41840   9.6044  65.5299 0461599 234.8102 120.9073  0.93474181 33681

Track YZ-2 R/B in real time with AllMySat

Download on the App Store